(193201) = 2000 QR147

Discovered at Socorro on 2000-08-31 by LINEAR.

Orbit

Orbit type: Hungaria

Note: WebGL enabled browser required.

epoch2023-09-13.0
epoch JD2460200.5
perihelion date2022-10-14.58556
perihelion JD2459867.08556
argument of perihelion (°)145.28572
ascending node (°)311.59219
inclination (°)19.19305
eccentricity0.0485416
perihelion distance (AU)1.8242249
Tisserand w.r.t. Jupiter3.9
ΔV w.r.t. Earth (km/sec)10.4
semimajor axis (AU)1.9172934
mean anomaly (°)123.78140
mean daily motion (°/day)0.37125390
aphelion distance (AU)2.010
period (years)2.65
P-vector [x]-0.14342773
P-vector [y]0.81712918
P-vector [z]0.55832642
Q-vector [x]-0.95863261
Q-vector [y]0.02544841
Q-vector [z]-0.28350645
absolute magnitude17.16
phase slope0.15
uncertainty0
referenceMPEC 2023-X132
observations used605
oppositions10
arc length (days)8869
first opposition used1999
last opposition used2023
residual rms (arc-secs)0.70
perturbers coarse indicatorM-v
perturbers precise indicator003Ek
first observation date used1999-02-10.0
last observation date used2023-05-24.0
computer nameMPCLINUX
JD of orbit computation2455934.314750
perihelion JD uncertainty (days)5.1761E-04
argument of perihelion uncertainty (°)2.1479E-04
ascending node uncertainty (°)1.5885E-05
inclination uncertainty (°)9.8407E-06
eccentricity uncertainty 1.3416E-07
perihelion distance uncertainty (AU)2.7405E-07
Minimum Orbit Intersection Distances (in AU)
for orbit epoch: 2460200.5, reference: E2023-XD2
Mercury1.50691
Venus1.11165
Earth0.84976
Mars0.19084
Jupiter3.06525
Saturn7.27189
Uranus16.6074
Neptune28.0362

Observations

622 total observations over interval: 1999 02 10.10047 – 2023 05 24.165934
These data are available for download (format description).

Date (UT) J2000 RA J2000 Dec Magn Location Ref
1999 02 10.10047 07 55 08.84 +22 36 41.9 18.7   704 – Lincoln Laboratory ETS, New Mexico MPS 213027
1999 02 10.12146 07 55 07.20 +22 36 24.8 18.7   704 – Lincoln Laboratory ETS, New Mexico MPS 213027
1999 02 10.14247 07 55 05.65 +22 36 10.1 19.9   704 – Lincoln Laboratory ETS, New Mexico MPS 213027
1999 02 10.16355 07 55 03.84 +22 35 49.2 19.3   704 – Lincoln Laboratory ETS, New Mexico MPS 213027
1999 02 10.18468 07 55 01.96 +22 35 31.7 19.2   704 – Lincoln Laboratory ETS, New Mexico MPS 213027
2000 08 31.25612 21 28 39.66 -00 44 21.4 19.8   704 – Lincoln Laboratory ETS, New Mexico MPS 18307
2000 08 31.26935 21 28 38.53 -00 44 18.8 19.6   704 – Lincoln Laboratory ETS, New Mexico MPS 18307
2000 08 31.28258 21 28 37.43 -00 44 15.0 19.5   704 – Lincoln Laboratory ETS, New Mexico MPS 18307
2000 08 31.29586 21 28 36.28 -00 44 12.3 19.4   704 – Lincoln Laboratory ETS, New Mexico MPS 18307
2000 09 03.19089 21 24 44.31 -00 32 03.7 19.6   704 – Lincoln Laboratory ETS, New Mexico MPS 18307
2000 09 03.20404 21 24 43.30 -00 31 59.7 19.8   704 – Lincoln Laboratory ETS, New Mexico MPS 18307
2000 09 03.21672 21 24 42.16 -00 31 56.6 19.5   704 – Lincoln Laboratory ETS, New Mexico MPS 18307
2000 09 03.22942 21 24 41.22 -00 31 53.5 19.9   704 – Lincoln Laboratory ETS, New Mexico MPS 18307
2000 09 03.24279 21 24 40.15 -00 31 50.6 19.7   704 – Lincoln Laboratory ETS, New Mexico MPS 18307
2000 09 23.17784 21 06 13.04 +00 27 54.2 20.3 V 691 – Steward Observatory, Kitt Peak-Spacewatch MPS 197974
2000 09 23.19888 21 06 12.33 +00 27 57.3 20.1 V 691 – Steward Observatory, Kitt Peak-Spacewatch MPS 197974
2000 09 23.21980 21 06 11.62 +00 27 59.9 20.3 V 691 – Steward Observatory, Kitt Peak-Spacewatch MPS 197974
2006 11 15.42766 09 21 53.74 +29 33 54.0 21.1 V 703 – Catalina Sky Survey MPS 197974
2006 11 15.43426 09 21 54.18 +29 33 50.4 20.4 V 703 – Catalina Sky Survey MPS 197974
2006 11 15.44087 09 21 54.57 +29 33 46.6 20.1 V 703 – Catalina Sky Survey MPS 197974
2006 11 15.44743 09 21 55.11 +29 33 42.5 20.7 V 703 – Catalina Sky Survey MPS 197974
2006 12 25.35098 09 39 32.76 +24 07 38.6 19.2 V 703 – Catalina Sky Survey MPS 196282
2006 12 25.36145 09 39 32.40 +24 07 33.6 19.3 V 703 – Catalina Sky Survey MPS 196282
2006 12 25.37190 09 39 32.00 +24 07 28.4 19.4 V 703 – Catalina Sky Survey MPS 196282
2006 12 25.38240 09 39 31.71 +24 07 23.5 19.4 V 703 – Catalina Sky Survey MPS 196282
2006 12 29.32559 09 37 12.59 +23 35 55.4 19.8   704 – Lincoln Laboratory ETS, New Mexico MPS 196282
2006 12 29.34893 09 37 11.72 +23 35 44.5 19.6   704 – Lincoln Laboratory ETS, New Mexico MPS 196282
2006 12 29.36062 09 37 11.20 +23 35 38.5 19.6   704 – Lincoln Laboratory ETS, New Mexico MPS 196282
2007 01 10.33311 09 25 14.62 +21 55 37.0 19.8 V 703 – Catalina Sky Survey MPS 196282
2007 01 10.34080 09 25 14.05 +21 55 32.6 19.5 V 703 – Catalina Sky Survey MPS 196282
2007 01 10.34852 09 25 13.33 +21 55 27.8 18.9 V 703 – Catalina Sky Survey MPS 196282
2007 01 10.35626 09 25 12.79 +21 55 25.3 19.5 V 703 – Catalina Sky Survey MPS 196282
2007 01 16.31335 09 16 48.10 +21 01 32.2 18.4 V 703 – Catalina Sky Survey MPS 196282
2007 01 16.31990 09 16 47.46 +21 01 28.5 18.5 V 703 – Catalina Sky Survey MPS 196282
2007 01 16.32641 09 16 46.84 +21 01 25.1 18.8 V 703 – Catalina Sky Survey MPS 196282
2007 01 16.33298 09 16 46.20 +21 01 22.2 18.6 V 703 – Catalina Sky Survey MPS 196282
2007 01 16.41417 09 16 38.46 +21 00 35.7 18.4 R 699 – Lowell Observatory-LONEOS MPS 196282
2007 01 16.41509 09 16 38.44 +21 00 34.8 18.2 R 699 – Lowell Observatory-LONEOS MPS 196282
2007 01 16.42884 09 16 37.14 +21 00 27.2   699 – Lowell Observatory-LONEOS MPS 196282
2007 01 16.42975 09 16 37.05 +21 00 26.0   699 – Lowell Observatory-LONEOS MPS 196282
2007 01 16.44350 09 16 35.69 +21 00 19.2   699 – Lowell Observatory-LONEOS MPS 196282
2007 01 16.44442 09 16 35.69 +21 00 19.1   699 – Lowell Observatory-LONEOS MPS 196282
2007 01 16.45818 09 16 34.31 +21 00 10.4   699 – Lowell Observatory-LONEOS MPS 196282
2007 01 16.45909 09 16 34.26 +21 00 11.0   699 – Lowell Observatory-LONEOS MPS 196282
2007 01 17.28915 09 15 17.83 +20 52 23.0 19.2 V 691 – Steward Observatory, Kitt Peak-Spacewatch MPS 196282
2007 01 17.30656 09 15 16.14 +20 52 13.3 19.2 V 691 – Steward Observatory, Kitt Peak-Spacewatch MPS 196282
2007 01 17.32397 09 15 14.45 +20 52 03.7 19.2 V 691 – Steward Observatory, Kitt Peak-Spacewatch MPS 196282
2007 01 18.51516 09 13 21.03 +20 40 43.9 18.5 R 644 – Palomar Mountain/NEAT MPS 196950
2007 01 18.53542 09 13 19.05 +20 40 31.7 18.9 R 644 – Palomar Mountain/NEAT MPS 196950
2007 01 18.55568 09 13 17.06 +20 40 19.9 19.2 R 644 – Palomar Mountain/NEAT MPS 196950
2007 01 21.27232 09 08 51.46 +20 13 58.8 19.0   704 – Lincoln Laboratory ETS, New Mexico MPS 196950
2007 01 21.28454 09 08 50.18 +20 13 51.9 19.3   704 – Lincoln Laboratory ETS, New Mexico MPS 196950
2007 01 21.29044 09 08 49.48 +20 13 48.2 18.9   704 – Lincoln Laboratory ETS, New Mexico MPS 196950
2007 01 21.29677 09 08 48.96 +20 13 45.4 19.8   704 – Lincoln Laboratory ETS, New Mexico MPS 196950
2007 01 21.30352 09 08 48.19 +20 13 40.2 18.9   704 – Lincoln Laboratory ETS, New Mexico MPS 196950
2007 01 21.30902 09 08 47.59 +20 13 38.0 19.3   704 – Lincoln Laboratory ETS, New Mexico MPS 196950
2007 01 21.31640 09 08 46.91 +20 13 33.5 18.8   704 – Lincoln Laboratory ETS, New Mexico MPS 196950
2007 01 21.32136 09 08 46.35 +20 13 29.8 19.3   704 – Lincoln Laboratory ETS, New Mexico MPS 196950
2007 01 21.32899 09 08 45.54 +20 13 26.0 18.8   704 – Lincoln Laboratory ETS, New Mexico MPS 196950
2007 01 24.26009 09 03 47.09 +19 44 03.2 18.9 V 691 – Steward Observatory, Kitt Peak-Spacewatch MPS 196950
2007 01 24.26978 09 03 46.05 +19 43 57.4 18.8   704 – Lincoln Laboratory ETS, New Mexico MPS 196950
2007 01 24.27893 09 03 45.08 +19 43 51.7 19.0 V 691 – Steward Observatory, Kitt Peak-Spacewatch MPS 196950
2007 01 24.28213 09 03 44.72 +19 43 49.7 18.9   704 – Lincoln Laboratory ETS, New Mexico MPS 196950
2007 01 24.29440 09 03 43.44 +19 43 41.6 19.0   704 – Lincoln Laboratory ETS, New Mexico MPS 196950
2007 01 24.29441 09 03 43.41 +19 43 42.2 19.0 V 691 – Steward Observatory, Kitt Peak-Spacewatch MPS 196950
2007 01 24.30666 09 03 42.12 +19 43 34.7 18.6   704 – Lincoln Laboratory ETS, New Mexico MPS 196950
2007 01 24.31894 09 03 40.76 +19 43 27.1 18.9   704 – Lincoln Laboratory ETS, New Mexico MPS 196950
2007 01 24.36857 09 03 35.42 +19 42 57.2 18.5 V 703 – Catalina Sky Survey MPS 196950
2007 01 24.37515 09 03 34.84 +19 42 48.1 17.0 V 703 – Catalina Sky Survey MPS 196950
2007 01 24.38169 09 03 34.09 +19 42 49.4 18.4 V 703 – Catalina Sky Survey MPS 196950
2007 01 24.38825 09 03 33.33 +19 42 45.0 18.4 V 703 – Catalina Sky Survey MPS 196950
2007 01 27.26180 08 58 33.71 +19 13 03.8 18.3 R 699 – Lowell Observatory-LONEOS MPS 197974
2007 01 27.28008 08 58 31.75 +19 12 52.2   699 – Lowell Observatory-LONEOS MPS 197974
2007 01 27.29836 08 58 29.80 +19 12 40.7   699 – Lowell Observatory-LONEOS MPS 197974
2007 02 06.30486 08 41 08.84 +17 24 06.0 18.7 V G96 – Mt. Lemmon Survey MPS 198612
2007 02 06.31157 08 41 08.16 +17 24 01.5 18.7 V G96 – Mt. Lemmon Survey MPS 198612
2007 02 06.31830 08 41 07.44 +17 23 57.1 18.7 V G96 – Mt. Lemmon Survey MPS 198612
2007 02 06.32507 08 41 06.75 +17 23 52.5 18.6 V G96 – Mt. Lemmon Survey MPS 198612
2007 02 07.21169 08 39 38.91 +17 13 58.5 18.4 V 703 – Catalina Sky Survey MPS 198612
2007 02 07.21824 08 39 38.23 +17 13 55.4 18.7 V 703 – Catalina Sky Survey MPS 198612
2007 02 07.22477 08 39 37.62 +17 13 51.7 18.8 V 703 – Catalina Sky Survey MPS 198612
2007 02 07.23132 08 39 36.93 +17 13 47.8 18.9 V 703 – Catalina Sky Survey MPS 198612
2007 02 08.25813 08 37 56.06 +17 02 21.4 18.9 V G96 – Mt. Lemmon Survey MPS 198612
2007 02 08.26370 08 37 55.48 +17 02 17.6 18.9 V G96 – Mt. Lemmon Survey MPS 198612
2007 02 08.26931 08 37 54.94 +17 02 13.9 18.8 V G96 – Mt. Lemmon Survey MPS 198612
2007 02 08.27492 08 37 54.37 +17 02 10.2 18.9 V G96 – Mt. Lemmon Survey MPS 198612
2007 02 10.23587 08 34 46.90 +16 40 17.4 18.3 R 644 – Palomar Mountain/NEAT MPS 199402
2007 02 10.25639 08 34 44.90 +16 40 03.9 18.1 R 644 – Palomar Mountain/NEAT MPS 199402
